Regional Weather Roundup
Issued by NWS

Home | Current Version | Previous Version | Graphics & Text | Print | Product List | Glossary On
Versions: 1 2 3 4 5 6 7 8 9 10 11 12 13 14 15 16 17 18 19 20 21 22 23 24 25 26 27 28 29 30 31 32 33 34 35 36 37 38 39 40 41 42 43 44 45 46 47 48 49 50
000
ASUS45 KABQ 310701
RWRNM
WEATHER ROUNDUP FOR NEW MEXICO
NATIONAL WEATHER SERVICE ALBUQUERQUE NM
100 AM MDT FRI OCT 31 2014

NOTE: "FAIR" MEANS FEW OR NO CLOUDS BELOW 12,000 FEET AGL WITH NO
       SIGNIFICANT WEATHER OR OBSTRUCTIONS TO VISION.

      THIS PRODUCT IS RELEASED AS TWO VERSIONS.  ONE VERSION NEAR
      THE TOP OF THE HOUR CONTAINING PRELIMINARY DATA FROM ALBUQUERQUE
      AND OTHER STATIONS.  A FINAL VERSION WITH ADDITIONAL DATA IS
      ISSUED ABOUT 10 MINUTES AFTER THE HOUR.

NMZ501-503-504-510>518-310800-
NORTHWEST PLATEAU/NORTHCENTRAL MOUNTAINS

CITY           SKY/WX    TMP DP  RH WIND       PRES   REMARKS
FARMINGTON     CLEAR     43  22  43 E9        30.27S
LOS ALAMOS     CLEAR     47  20  34 SW12      30.45S
SANTA FE       CLEAR     43  19  38 SW8       30.41R
TAOS           CLEAR     37  12  35 CALM      30.43S
ANGEL FIRE     FAIR      25  17  74 CALM      30.50F

$$
NMZ402-403-502-505>509-310800-
WESTCENTRAL MOUNTAINS/SOUTHWEST MOUNTAINS

CITY           SKY/WX    TMP DP  RH WIND       PRES   REMARKS
GALLUP         MOCLDY    42  18  37 W3        30.30F
SILVER CITY    PTCLDY    50  32  50 CALM      30.31S

$$
NMZ407-409-411-412-310800-
SOUTHERN DESERTS

CITY           SKY/WX    TMP DP  RH WIND       PRES   REMARKS
LORDSBURG      FAIR      59  32  36 SE10      30.21R
DEMING         PTCLDY    62  31  31 E10       30.24S
HOLLOMAN AFB   PTCLDY    52  33  47 W5        30.25S
T OR C         PTCLDY    52  27  38 NW8       30.28S

$$
NMZ519>523-310800-
CENTRAL VALLEYS/CENTRAL HIGHLANDS

CITY           SKY/WX    TMP DP  RH WIND       PRES   REMARKS
ALBUQUERQUE    CLEAR     58  23  26 E22       30.33S
DOUBLE EAGLE   CLEAR     47  22  36 NE6       30.37R
MORIARTY ARPT  FAIR      30  17  59 NE3       30.44S
CLINES CORNERS PTCLDY    41  21  44 E10       30.44S
BELEN          NOT AVBL
SOCORRO        FAIR      49  28  44 CALM      30.31R

$$
NMZ524>526-539-540-310800-
SOUTHCENTRAL MOUNTAINS

CITY           SKY/WX    TMP DP  RH WIND       PRES   REMARKS
RUIDOSO        CLEAR     41  27  56 S6        30.47S

$$
NMZ527>531-310800-
NORTHEAST HIGHLANDS/NORTHEAST PLAINS

CITY           SKY/WX    TMP DP  RH WIND       PRES   REMARKS
LAS VEGAS      PTCLDY    35  22  58 NE6       30.47S WCI  30
RATON          CLEAR     36  22  56 CALM      30.45S
CLAYTON        CLEAR     43  24  47 N3        30.43R

$$
NMZ532>537-310800-
EASTCENTRAL PLAINS

CITY           SKY/WX    TMP DP  RH WIND       PRES   REMARKS
TUCUMCARI      CLEAR     44  25  47 NE5       30.38R
CANNON AFB     CLEAR     45  29  53 NE7       30.38R
CLOVIS AIRPORT CLEAR     43  27  52 NE9       30.40S

$$
NMZ028-029-538-310800-
SOUTHEAST PLAINS

CITY           SKY/WX    TMP DP  RH WIND       PRES   REMARKS
ROSWELL        CLEAR     51  32  48 NW6       30.35R
CARLSBAD       MOCLDY    56  47  71 N6        30.32R
HOBBS          CLEAR     55  32  41 NE10      30.34R


$$



USA.gov is the U.S. government's official web portal to all federal, state and local government web resources and services.